報告年月日,陽性者数,14日移動平均,30日移動平均
2020/7/6,102,111,111
2020/7/7,106,110,111
2020/7/8,75,105,109
2020/7/9,224,121,116
2020/7/10,243,137,124
2020/7/11,206,146,129
2020/7/12,206,154,134
2020/7/13,118,149,133
2020/7/14,143,148,134
2020/7/15,165,150,136
2020/7/16,286,168,146
2020/7/17,293,185,155
2020/7/18,290,199,164
2020/7/19,188,198,166
2020/7/20,168,194,166
2020/7/21,237,200,171
2020/7/22,238,205,175
2020/7/23,366,226,187
2020/7/24,260,231,192
2020/7/25,295,240,199
2020/7/26,239,240,202
2020/7/27,131,225,197
2020/7/28,266,230,201
2020/7/29,250,233,204
2020/7/30,367,251,215
2020/7/31,462,279,231
2020/8/1,472,305,247
2020/8/2,292,303,250
2020/8/3,258,297,251
2020/8/4,309,299,255
2020/8/5,263,294,256
2020/8/6,360,303,263
2020/8/7,461,324,276
2020/8/8,429,338,286
2020/8/9,331,337,289
2020/8/10,197,318,283
2020/8/11,188,301,277
2020/8/12,222,290,273
2020/8/13,206,279,269
2020/8/14,389,294,277
2020/8/15,385,306,284
2020/8/16,260,300,282
2020/8/17,161,281,274
2020/8/18,207,271,270
2020/8/19,186,260,265
2020/8/20,339,271,270
2020/8/21,258,269,269
2020/8/22,256,267,268
2020/8/23,212,260,264
2020/8/24,95,238,253
2020/8/25,182,231,248
2020/8/26,236,232,247
2020/8/27,250,234,247
2020/8/28,226,233,246
2020/8/29,247,235,246
2020/8/30,148,223,240
2020/8/31,100,207,231
2020/9/1,170,202,227
2020/9/2,141,194,221
2020/9/3,211,196,220
2020/9/4,136,188,215
2020/9/5,181,187,213
2020/9/6,116,178,207
2020/9/7,76,164,199
2020/9/8,170,165,197
2020/9/9,149,163,194
2020/9/10,276,178,199
2020/9/11,187,179,198
2020/9/12,226,185,200
2020/9/13,146,180,197
2020/9/14,80,167,189
2020/9/15,191,170,189
2020/9/16,163,169,187
2020/9/17,171,169,186
2020/9/18,220,176,188
2020/9/19,218,182,190
2020/9/20,162,179,188
2020/9/21,97,168,182
2020/9/22,88,157,176
2020/9/23,59,144,168
2020/9/24,193,151,170
2020/9/25,195,157,172
2020/9/26,269,172,178
2020/9/27,144,168,176
2020/9/28,78,156,170
2020/9/29,211,163,173
2020/9/30,194,167,174
2020/10/1,234,176,178
2020/10/2,196,179,179
2020/10/3,205,182,181
2020/10/4,107,172,176
2020/10/5,65,158,169
2020/10/6,176,160,169
2020/10/7,140,157,167
2020/10/8,248,169,172
2020/10/9,203,174,174
2020/10/10,248,184,179
2020/10/11,146,179,177
2020/10/12,78,166,171
2020/10/13,166,166,171
2020/10/14,177,167,171
2020/10/15,284,183,178
2020/10/16,183,183,178
2020/10/17,235,190,182
2020/10/18,132,182,179
2020/10/19,78,168,172
2020/10/20,139,164,170
2020/10/21,145,161,168
2020/10/22,185,164,169
2020/10/23,186,167,170
2020/10/24,201,172,172
2020/10/25,124,166,169
2020/10/26,102,157,165
2020/10/27,158,157,165
2020/10/28,171,159,165
2020/10/29,220,167,169
2020/10/30,203,172,171
2020/10/31,215,178,174
2020/11/1,116,170,170
2020/11/2,87,159,165
2020/11/3,209,166,168
2020/11/4,122,160,165
2020/11/5,269,175,172
2020/11/6,242,184,177
2020/11/7,294,199,185
2020/11/8,189,198,185
2020/11/9,156,192,183
2020/11/10,293,205,190
2020/11/11,316,220,198
2020/11/12,392,243,211
2020/11/13,374,260,222
2020/11/14,352,272,230
2020/11/15,255,270,232
2020/11/16,180,258,229
2020/11/17,298,263,233
2020/11/18,486,293,249
2020/11/19,531,325,267
2020/11/20,522,351,283
2020/11/21,539,376,300
2020/11/22,390,378,306
2020/11/23,315,370,307
2020/11/24,188,346,299
2020/11/25,402,353,306
2020/11/26,482,370,317
2020/11/27,570,397,333
2020/11/28,561,419,348
2020/11/29,419,419,353
2020/11/30,312,405,350
2020/12/1,370,400,351
2020/12/2,501,413,361
2020/12/3,532,429,372
2020/12/4,459,433,378
2020/12/5,584,453,391
2020/12/6,328,436,387
2020/12/7,301,418,381
2020/12/8,354,409,379
2020/12/9,574,431,392
2020/12/10,601,454,405
2020/12/11,596,473,417
2020/12/12,621,493,430
2020/12/13,481,491,433
2020/12/14,305,466,425
2020/12/15,457,465,427
2020/12/16,681,494,443
2020/12/17,822,538,467
2020/12/18,664,555,480
2020/12/19,736,579,497
2020/12/20,556,576,501
2020/12/21,397,552,494
2020/12/22,570,554,499
2020/12/23,758,581,516
2020/12/24,895,623,540
2020/12/25,890,659,563
2020/12/26,954,698,588
2020/12/27,708,699,596
2020/12/28,491,671,589
2020/12/29,869,697,607
2020/12/30,961,732,630
2020/12/31,1353,815,677
2021/1/1,793,812,684
2021/1/2,829,814,693
2021/1/3,826,816,702
2021/1/4,905,828,715
2021/1/5,1315,893,754
2021/1/6,1640,993,811
2021/1/7,2520,1197,921
2021/1/8,2459,1365,1020
2021/1/9,2332,1494,1105
2021/1/10,1510,1496,1131
2021/1/11,1252,1463,1139
2021/1/12,1025,1405,1132
2021/1/13,1480,1415,1154
2021/1/14,1552,1433,1180
2021/1/15,2044,1514,1236
2021/1/16,1839,1557,1275
2021/1/17,1595,1562,1296
2021/1/18,1217,1516,1291
2021/1/19,1253,1481,1289
2021/1/20,1286,1455,1289
2021/1/21,1485,1459,1302
2021/1/22,1184,1422,1294
2021/1/23,1079,1376,1280
2021/1/24,986,1324,1261
2021/1/25,619,1230,1220
2021/1/26,1026,1203,1207
2021/1/27,976,1173,1192
2021/1/28,1065,1159,1184
2021/1/29,871,1121,1164
2021/1/30,770,1074,1139
2021/1/31,634,1015,1106
2021/2/1,393,932,1060
2021/2/2,556,882,1027
2021/2/3,676,855,1004
2021/2/4,734,839,987
2021/2/5,577,804,961
2021/2/6,639,782,940
2021/2/7,429,735,907
2021/2/8,276,674,866
2021/2/9,412,639,837
2021/2/10,491,619,815
2021/2/11,434,594,790
2021/2/12,307,556,759
2021/2/13,369,531,734
2021/2/14,371,510,711
2021/2/15,266,477,682
2021/2/16,350,460,661
2021/2/17,378,449,643
2021/2/18,445,448,630
2021/2/19,353,435,612
2021/2/20,327,421,594
2021/2/21,272,401,573
2021/2/22,178,371,548
2021/2/23,275,358,530
2021/2/24,213,339,510
2021/2/25,340,339,499
2021/2/26,270,330,484
2021/2/27,337,331,475
2021/2/28,329,331,466
2021/3/1,121,303,444
2021/3/2,232,294,430
2021/3/3,316,297,423
2021/3/4,279,295,414
2021/3/5,301,296,407
2021/3/6,293,296,400
2021/3/7,237,288,389
2021/3/8,116,265,371
2021/3/9,290,268,366
2021/3/10,340,278,364
2021/3/11,335,286,362
2021/3/12,304,288,358
2021/3/13,330,294,356
2021/3/14,239,287,348
2021/3/15,175,272,337
2021/3/16,300,276,335
2021/3/17,409,294,340
2021/3/18,323,298,339
2021/3/19,303,299,337
2021/3/20,342,305,337
2021/3/21,256,298,332
2021/3/22,187,283,323
2021/3/23,337,290,324
2021/3/24,420,307,330
2021/3/25,394,319,334
2021/3/26,376,327,337
2021/3/27,430,341,343
2021/3/28,313,337,341
2021/3/29,234,323,334
2021/3/30,364,328,336
2021/3/31,414,339,341
2021/4/1,475,357,350
2021/4/2,440,368,356
2021/4/3,446,378,362
2021/4/4,355,375,362
2021/4/5,249,358,355
2021/4/6,399,363,358
2021/4/7,555,389,371
2021/4/8,545,410,382
2021/4/9,537,427,392
2021/4/10,570,446,403
2021/4/11,421,443,404
2021/4/12,306,425,398
2021/4/13,510,436,405
2021/4/14,591,457,417
2021/4/15,729,493,437
2021/4/16,667,516,452
2021/4/17,759,548,472
2021/4/18,543,547,477
2021/4/19,405,528,472
2021/4/20,711,552,487
2021/4/21,843,591,510
2021/4/22,861,627,533
2021/4/23,759,645,548
2021/4/24,876,676,569
2021/4/25,635,671,573
2021/4/26,425,638,563
2021/4/27,828,663,580
2021/4/28,925,698,602
2021/4/29,1027,742,629
2021/4/30,698,736,633
2021/5/1,1050,778,660
2021/5/2,879,791,674
2021/5/3,708,780,676
2021/5/4,609,757,672
2021/5/5,621,739,669
2021/5/6,591,719,664
2021/5/7,907,744,680
2021/5/8,1121,794,708
2021/5/9,1032,826,729
2021/5/10,573,792,719
2021/5/11,925,810,732
2021/5/12,969,831,747
2021/5/13,1010,855,764
2021/5/14,854,855,770
2021/5/15,772,844,770
2021/5/16,542,804,755
2021/5/17,419,753,733
2021/5/18,732,750,733
2021/5/19,766,752,735
2021/5/20,843,764,742
2021/5/21,649,749,736
2021/5/22,602,729,727
2021/5/23,535,703,715
2021/5/24,340,655,691
2021/5/25,542,640,681
2021/5/26,743,654,685
2021/5/27,684,658,685
